Location: La Fredeussais
(48.1780°N, 1.3980°W)
Time: 03:10:18
(UTC+00:00)

Meteor 2-9 Rocket - Pass Details

Date: 09 May 2021
Orbit: 791 x 895 km, 81.3° (Epoch: 13 June)

Event Time Altitude Azimuth Distance (km) Brightness Sun altitude
Rises 22:46:47 0° 350° (N) 3,511 8.9 -22.1°
Reaches altitude 10° 22:49:19 10° 355° (N) 2,559 7.8 -22.2°
Maximum altitude 22:55:04 59° 74° (ENE) 1,004 4.5 -22.5°
Enters shadow 22:56:38 44° 128° (SE) 1,187 4.6 -22.6°
